Location: Agenbach
(47.2667°N, 11.4500°E)
Time: 05:58:19
(UTC+00:00)

CZ-4C R/B - Pass Details

Date: 07 June 2020
Orbit: 463 x 636 km, 98.0° (Epoch: 04 July)

Event Time Altitude Azimuth Distance (km) Brightness Sun altitude
Exits shadow 00:38:49 24° 157° (SSE) 1,312 4.8 -17.3°
Maximum altitude 00:41:26 77° 75° (ENE) 658 3.7 -17.2°
Drops below altitude 10° 00:45:54 10° 349° (N) 2,035 7.1 -16.9°
Sets 00:48:07 0° 348° (NNW) 2,944 8.0 -16.8°
